Weather History for Friday Harbor, WA

Change the Weather History Date:

Tuesday, January 1, 2013

  Actual Average Record
Temperature  
Mean Temperature 34 °F -  
Max Temperature 39 °F 43 °F 53 °F (2006)
Min Temperature 30 °F 35 °F 25 °F (2011)
Degree Days  
Heating Degree Days 30    
Moisture  
Dew Point 34 °F    
Average Humidity 91    
Maximum Humidity 100    
Minimum Humidity 76    
Precipitation  
Precipitation 0.00 in - - ()
Sea Level Pressure  
Sea Level Pressure 30.47 in    
Wind  
Wind Speed 1 mph (North)    
Max Wind Speed 6 mph    
Max Gust Speed -    
Visibility 9 miles    
Events      
Averages and records for this station are not official NWS values.
T = Trace of Precipitation, MM = Missing Value Source: NWS Daily Summary

Daily Weather History Graph

Daily Weather History Graph

Search for Another Location

Airport:

Trip Planner

Search our weather history database for the weather conditions in past years. The results will help you decide how hot, cold, wet, or windy it might be!

Date:

Astronomy

Jan. 01, 2013 Rise Set
Actual Time 8:04 AM PST 4:27 PM PST
Civil Twilight 7:27 AM PST 5:04 PM PST
Nautical Twilight 6:47 AM PST 5:44 PM PST
Astronomical Twilight 6:09 AM PST 6:22 PM PST
Moon 9:29 PM PST (1/1) 9:56 AM PST (1/1)
Length of Visible Light 9h 37m
Length of Day
8h 23m
Waning Gibbous, 82% of the Moon is Illuminated
Jan 1
Waning Gibbous
Jan 4
Last Quarter
Jan 11
New
Jan 18
First Quarter
Jan 26
Full

Hourly Weather History & Observations

Time (PST) Temp. Windchill Dew Point Humidity Pressure Visibility Wind Dir Wind Speed Gust Speed Precip Events Conditions
12:19 AM 37.4 °F - 35.6 °F 93% 30.48 in 10.0 mi Calm Calm - N/A   Overcast
12:53 AM 37.9 °F - 37.0 °F 97% 30.48 in 10.0 mi Calm Calm - N/A   Overcast
1:34 AM 37.4 °F - 37.4 °F 100% 30.48 in 10.0 mi Calm Calm - N/A   Overcast
1:53 AM 37.9 °F - 37.0 °F 97% 30.50 in 10.0 mi Calm Calm - N/A   Overcast
2:53 AM 37.9 °F - 37.0 °F 97% 30.50 in 10.0 mi Calm Calm - N/A   Overcast
3:53 AM 37.0 °F - 35.1 °F 93% 30.48 in 10.0 mi Calm Calm - N/A   Overcast
4:13 AM 35.6 °F - 33.8 °F 93% 30.47 in 10.0 mi Calm Calm - N/A   Overcast
4:32 AM 35.6 °F - 35.6 °F 100% 30.47 in 10.0 mi Calm Calm - N/A   Overcast
4:53 AM 36.0 °F - 35.1 °F 97% 30.47 in 6.0 mi Calm Calm - N/A   Overcast
5:53 AM 35.1 °F - 34.0 °F 96% 30.47 in 8.0 mi Calm Calm - N/A   Overcast
6:29 AM 35.6 °F - 35.6 °F 100% 30.48 in 7.0 mi Calm Calm - N/A   Overcast
6:53 AM 37.0 °F 34.5 °F 35.1 °F 93% 30.48 in 9.0 mi North 3.5 mph - N/A   Overcast
7:04 AM 37.4 °F - 35.6 °F 93% 30.48 in 10.0 mi Calm Calm - N/A   Overcast
7:32 AM 35.6 °F - 33.8 °F 93% 30.48 in 10.0 mi Calm Calm - N/A   Partly Cloudy
8:40 AM 33.8 °F - 32.0 °F 93% 30.50 in 5.0 mi Calm Calm - N/A   Mostly Cloudy
8:53 AM 32.0 °F - 30.9 °F 96% 30.51 in 7.0 mi Calm Calm - N/A   Mostly Cloudy
9:00 AM 33.8 °F - 32.0 °F 93% 30.50 in 7.0 mi Calm Calm - N/A   Scattered Clouds
9:53 AM 37.0 °F - 35.1 °F 93% 30.53 in 10.0 mi Calm Calm - N/A   Clear
10:32 AM 37.4 °F 32.8 °F 35.6 °F 93% 30.51 in 10.0 mi North 5.8 mph - N/A   Mostly Cloudy
10:53 AM 37.9 °F 35.5 °F 34.0 °F 86% 30.52 in 10.0 mi North 3.5 mph - N/A   Overcast
11:53 AM 37.9 °F - 33.1 °F 83% 30.50 in 10.0 mi Calm Calm - N/A   Scattered Clouds
12:53 PM 39.0 °F - 32.0 °F 76% 30.48 in 10.0 mi Calm Calm - N/A   Clear
1:53 PM 39.0 °F 34.8 °F 32.0 °F 76% 30.47 in 10.0 mi North 5.8 mph - N/A   Clear
2:53 PM 39.0 °F 35.7 °F 32.0 °F 76% 30.47 in 10.0 mi North 4.6 mph - N/A   Clear
3:53 PM 37.0 °F 34.5 °F 32.0 °F 82% 30.47 in 10.0 mi Variable 3.5 mph - N/A   Clear
4:53 PM 36.0 °F - 32.0 °F 86% 30.45 in 10.0 mi Calm Calm - N/A   Clear
5:53 PM 34.0 °F - 32.0 °F 92% 30.43 in 10.0 mi Calm Calm - N/A   Clear
6:53 PM 34.0 °F - 32.0 °F 92% 30.42 in 10.0 mi Calm Calm - N/A   Clear
7:53 PM 35.1 °F - 33.1 °F 92% 30.40 in 10.0 mi Calm Calm - N/A   Clear
8:53 PM 35.1 °F 32.2 °F 32.0 °F 89% 30.40 in 10.0 mi NNW 3.5 mph - N/A   Clear
9:53 PM 33.1 °F - 30.9 °F 92% 30.40 in 10.0 mi Calm Calm - N/A   Clear
10:53 PM 30.9 °F - 30.0 °F 96% 30.39 in 10.0 mi Calm Calm - N/A   Clear
11:53 PM 35.1 °F 32.2 °F 30.9 °F 85% 30.39 in 10.0 mi NW 3.5 mph - N/A   Clear